Weather History for KMGW - December, 1998

Change the Weather History Date:

Thursday, December 3, 1998

  Actual Average Record
Temperature  
Mean Temperature 58 °F 38 °F  
Max Temperature 64 °F 46 °F 76 °F (1982)
Min Temperature 53 °F 31 °F 0 °F (1976)
Degree Days  
Heating Degree Days 6 27  
Month to date heating degree days 79  
Since 1 July heating degree days 1127  
Cooling Degree Days 0 0  
Month to date cooling degree days 0  
Year to date cooling degree days 814  
Growing Degree Days 8 (Base 50)    
Moisture  
Dew Point 48 °F    
Average Humidity 62    
Maximum Humidity 72    
Minimum Humidity 47    
Precipitation  
Precipitation 0.00 in 0.10 in 1.05 in (1978)
Month to date precipitation 0.31  
Year to date precipitation 39.23  
Sea Level Pressure  
Sea Level Pressure 30.03 in    
Wind  
Wind Speed 9 mph (SW)    
Max Wind Speed 17 mph    
Max Gust Speed 26 mph    
Visibility 14 miles    
Events      
T = Trace of Precipitation, MM = Missing Value Source: NWS Daily Summary

Daily Weather History Graph

Daily Weather History Graph

Search for Another Location

Airport or City:

Trip Planner

Search our weather history database for the weather conditions in past years. The results will help you decide how hot, cold, wet, or windy it might be!

Date:

Astronomy

Dec. 03, 1998 Rise Set
Actual Time 7:23 AM EST 4:55 PM EST
Civil Twilight 6:53 AM EST 5:25 PM EST
Nautical Twilight 6:19 AM EST 5:59 PM EST
Astronomical Twilight 5:47 AM EST 6:31 PM EST
Moon 5:27 PM EST (12/3) 7:01 AM EST (12/3)
Length of Visible Light 10h 32m
Length of Day
9h 32m
Full, 100% of the Moon is Illuminated
Dec 3
Full
Dec 10
Last Quarter
Dec 18
New
Dec 26
First Quarter
Jan 1
Full

Hourly Weather History & Observations

Time (EST) Temp. Dew Point Humidity Pressure Visibility Wind Dir Wind Speed Gust Speed Precip Events Conditions
12:50 AM 55.4 °F 35.6 °F 47% 30.04 in 10.0 mi SW 6.9 mph - N/A   Overcast
1:48 AM 55.4 °F 35.6 °F 47% 30.06 in 10.0 mi SW 4.6 mph - N/A   Overcast
2:49 AM 53.6 °F 35.6 °F 51% 30.06 in 10.0 mi SSW 6.9 mph - N/A   Overcast
3:50 AM 53.6 °F 35.6 °F 51% 30.05 in 10.0 mi SSW 11.5 mph - N/A   Overcast
6:48 AM 55.4 °F 42.8 °F 63% 30.05 in 10.0 mi SSW 11.5 mph - N/A   Overcast
8:45 AM 59.0 °F 44.6 °F 59% 30.05 in 20.0 mi SSW 11.5 mph 17.3 mph N/A   Mostly Cloudy
9:45 AM 60.8 °F 46.4 °F 59% 30.05 in 20.0 mi SW 11.5 mph 17.3 mph N/A   Mostly Cloudy
10:45 AM 64.4 °F 48.2 °F 56% 30.04 in 20.0 mi SW 13.8 mph 23.0 mph N/A   Scattered Clouds
11:45 AM 64.4 °F 47.1 °F 53% 30.03 in 20.0 mi SW 17.3 mph 26.5 mph N/A   Overcast
12:45 PM 64.4 °F 50.0 °F 59% 30.02 in 20.0 mi SW 11.5 mph 17.3 mph N/A   Overcast
1:45 PM 64.4 °F 50.0 °F 59% 30.00 in 20.0 mi SW 9.2 mph 17.3 mph N/A   Overcast
2:45 PM 64.4 °F 51.8 °F 64% 29.99 in 15.0 mi SW 9.2 mph 17.3 mph N/A   Overcast
3:45 PM 64.4 °F 51.8 °F 64% 29.99 in 15.0 mi SW 11.5 mph 17.3 mph N/A   Overcast
4:45 PM 62.6 °F 51.8 °F 68% 29.99 in 15.0 mi SW 8.1 mph - N/A   Overcast
5:45 PM 62.6 °F 51.8 °F 68% 29.99 in 15.0 mi SW 6.9 mph - N/A   Overcast
6:45 PM 62.6 °F 51.8 °F 68% 30.01 in 10.0 mi SW 9.2 mph - N/A   Overcast
7:45 PM 62.6 °F 53.6 °F 72% 30.03 in 10.0 mi SSW 9.2 mph - N/A   Overcast
8:45 PM 62.6 °F 53.6 °F 72% 30.02 in 10.0 mi SW 9.2 mph - N/A   Overcast
9:45 PM 62.6 °F 53.6 °F 72% 30.03 in 10.0 mi SW 11.5 mph - N/A   Overcast
10:45 PM 62.6 °F 53.6 °F 72% 30.02 in 10.0 mi SW 11.5 mph 17.3 mph N/A   Overcast
11:50 PM 64.4 °F 53.6 °F 68% 30.03 in 10.0 mi SW 11.5 mph - N/A   Overcast